This is the latest recevied weather packets stored in our database for station/object VK4AB-13. If no packets are shown the sender has not sent any weather packets the latest 10 day(s).
| Time | Temp. | Humidity | Pressure | Rain* | Wind** | Luminosity | Snow |
|---|---|---|---|---|---|---|---|
| 1777676634 | 22.78° C | 82% | 1021.5 hPa | 0 mm | - | 580 W/m² | - |
| 1777676334 | 22.78° C | 82% | 1021.6 hPa | 0 mm | - | 253 W/m² | - |
| 1777676034 | 22.78° C | 84% | 1021.5 hPa | 0 mm | - | 297 W/m² | - |
| 1777675734 | 22.22° C | 85% | 1021.5 hPa | 0 mm | - | 322 W/m² | - |
| 1777675434 | 21.67° C | 86% | 1021.5 hPa | 0 mm | - | 156 W/m² | - |
| 1777675134 | 21.67° C | 89% | 1021.6 hPa | 0 mm | - | 209 W/m² | - |
| 1777674834 | 21.11° C | 91% | 1021.7 hPa | 0 mm | - | 236 W/m² | - |
| 1777674534 | 21.11° C | 92% | 1021.7 hPa | 0 mm | - | 146 W/m² | - |
| 1777674234 | 21.11° C | 94% | 1021.6 hPa | 0 mm | - | 116 W/m² | - |
| 1777673934 | 20.56° C | 94% | 1021.6 hPa | 0 mm | - | 142 W/m² | - |
| 1777673634 | 20.56° C | 94% | 1021.5 hPa | 0 mm | - | 98 W/m² | - |
| 1777673334 | 20.56° C | 95% | 1021.5 hPa | 0 mm | - | 107 W/m² | - |
| 1777673034 | 20° C | 95% | 1021.4 hPa | 0.25 mm | - | 193 W/m² | - |
| 1777672734 | 20° C | 95% | 1021.3 hPa | 0.25 mm | - | 81 W/m² | - |
| 1777672434 | 20° C | 95% | 1021.3 hPa | 0.25 mm | - | 76 W/m² | - |
| 1777672134 | 19.44° C | 95% | 1021.2 hPa | 0.25 mm | - | 60 W/m² | - |
| 1777671834 | 19.44° C | 95% | 1021.2 hPa | 0.25 mm | - | 60 W/m² | - |
| 1777671534 | 19.44° C | 96% | 1021.1 hPa | 0.25 mm | - | 37 W/m² | - |
| 1777671234 | 19.44° C | 96% | 1021.1 hPa | 0.25 mm | - | 81 W/m² | - |
| 1777670934 | 19.44° C | 96% | 1021.1 hPa | 0.25 mm | - | 88 W/m² | - |
| 1777670634 | 19.44° C | 96% | 1021.2 hPa | 0.25 mm | - | 37 W/m² | - |
| 1777670334 | 18.89° C | 96% | 1021.3 hPa | 0.25 mm | - | 79 W/m² | - |
| 1777670034 | 18.89° C | 96% | 1021.2 hPa | 0.25 mm | - | 120 W/m² | - |
| 1777669734 | 18.89° C | 96% | 1021.3 hPa | 0.25 mm | - | 72 W/m² | - |
| 1777669434 | 18.33° C | 95% | 1021.1 hPa | 0 mm | - | 81 W/m² | - |
* Rain latest hour (hover to see other rain measurements)
** Current wind speed in m/s (hover to see current wind gust speed)